Regional Weather Roundup
Issued by NWS

Home | Current Version | Previous Version | Graphics & Text | Print | Product List | Glossary On
Versions: 1 2 3 4 5 6 7 8 9 10 11 12 13 14 15 16 17 18 19 20 21 22 23 24 25 26 27 28 29 30 31 32 33 34 35 36 37 38 39 40 41 42 43 44 45 46 47 48 49 50
000
ASUS43 KMKX 221500
RWRWI

WISCONSIN REGIONAL WEATHER ROUNDUP
NATIONAL WEATHER SERVICE MILWAUKEE/SULLIVAN WI
1000 AM CDT MON MAY 22 2017

NOTE: "FAIR" INDICATES FEW OR NO CLOUDS BELOW 12,000 FEET WITH NO
SIGNIFICANT WEATHER AND/OR OBSTRUCTIONS TO VISIBILITY.

WIZ001-002-006>008-014>016-023>028-221600-
NORTHWEST WISCONSIN

CITY           SKY/WX    TMP DP  RH WIND       PRES   REMARKS
SUPERIOR ARPT  NOT AVBL
ASHLAND        CLOUDY    50  42  74 SW12      29.77S
HAYWARD        CLOUDY    49  41  74 W8        29.80S
SIREN          CLOUDY    48  41  76 W12G18    29.83S
CUMBERLAND     CLOUDY    50  43  76 W12G18    29.82F
RICE LAKE      PTSUNNY   52  43  72 W12G18    29.84F
CHETEK         PTSUNNY   53  45  74 W8        29.83F
LADYSMITH      PTSUNNY   52  44  75 W7G16     29.84S
EAU CLAIRE     NOT AVBL
MENOMONIE      MOSUNNY   56  44  64 SW12      29.86S
NEW RICHMOND   PTSUNNY   54  43  65 W13G18    29.85R
OSCEOLA        PTSUNNY   54  43  66 W13G22    29.87S
$$

WIZ003>005-009-010-017-018-221600-
NORTH CENTRAL WISCONSIN

CITY           SKY/WX    TMP DP  RH WIND       PRES   REMARKS
MANITOWISH WTR LGT RAIN  44  44 100 SW8       29.78S
ARBOR VITAE    CLOUDY    46  43  91 SW8       29.79S
WOODRUFF       CLOUDY    46  43  91 SW8       29.79S
RHINELANDER    CLOUDY    49  43  80 W10       29.82S
EAGLE RIVER    CLOUDY    46  44  91 W8        29.79S
LAND O LAKES   CLOUDY    47  42  82 W6        29.79F
PHILLIPS       CLOUDY    47  44  88 SW8       29.80S
TOMAHAWK       CLOUDY    47  42  80 W6        29.83S
MEDFORD        CLOUDY    49  44  81 W12       29.84F
MERRILL        CLOUDY    49  44  80 W13G20    29.85S
$$

WIZ029-030-035-036-043>047-221600-
CENTRAL WISCONSIN

CITY           SKY/WX    TMP DP  RH WIND       PRES   REMARKS
WAUSAU         PTSUNNY   53  44  71 W12       29.84F
MOSINEE        PTSUNNY   52  45  76 W12       29.87F
MARSHFIELD     SUNNY     54  44  69 SW14      29.86S
STEVENS POINT  MOSUNNY   52  41  65 W10G17    29.89S
WAUPACA        MOSUNNY   58  42  56 W12G17    29.90S
WAUTOMA        SUNNY     57  44  62 SW10      29.91F
WISC RAPIDS    MOSUNNY   57  43  59 W13G18    29.90S
CAMP DOUGLAS   NOT AVBL
$$

WIZ011>013-019>022-031-037>040-048>050-221600-
NORTHEAST WISCONSIN

CITY           SKY/WX    TMP DP  RH WIND       PRES   REMARKS
ANTIGO         CLOUDY    48  43  85 W12       29.84F
SHAWANO        CLOUDY    55  43  64 W12G17    29.87S
OCONTO         CLOUDY    53  42  66 W20G29    29.86R
STURGEON BAY   CLOUDY    52  43  71 W16G23    29.86R
GREEN BAY      PTSUNNY   54  46  74 W17G25    29.90R
MANITOWOC      NOT AVBL
APPLETON       PTSUNNY   54  39  58 SW18      29.89S
CLINTONVILLE   PTSUNNY   52  41  66 W12G17    29.89R
OSHKOSH        SUNNY     55  43  63 W10       29.91S
$$

WIZ032>034-041-042-053>061-221600-
SOUTHWEST WISCONSIN

CITY           SKY/WX    TMP DP  RH WIND       PRES   REMARKS
LA CROSSE      SUNNY     59  47  64 S10       29.89F
SPARTA         SUNNY     57  44  61 W5        29.91F
VIROQUA        SUNNY     55  46  71 W10       29.92F
BOSCOBEL       CLOUDY    56  46  69 SW5       29.94F
PRAIRIE DU CHI LGT RAIN  53  44  71 S6        29.95F
PLATTEVILLE    CLOUDY    53  49  87 S10       29.98F
$$

WIZ056-057-062-063-064-067-068-221600-
SOUTH CENTRAL WISCONSIN

CITY           SKY/WX    TMP DP  RH WIND       PRES   REMARKS
REEDSBURG      SUNNY     56  43  63 SW10      29.93F
BARABOO/DELLS  SUNNY     56  43  61 W6        29.92F
LONE ROCK      PTSUNNY   58  45  62 SW8       29.94S
MINERAL POINT  CLOUDY    55  48  76 SW15G21   29.96S
MADISON        MOSUNNY   57  45  64 SW7       29.94F
MIDDLETON      SUNNY     59  45  60 SW10G17   29.95F
WATERTOWN      SUNNY     56  45  65 SW9       29.96S
MONROE         SUNNY     55  45  67 S14G20    29.97F
JANESVILLE     MOSUNNY   61  46  59 SW13      29.97F
$$

WIZ051-052-058>065-066-070>072-221600-
SOUTHEAST WISCONSIN

CITY           SKY/WX    TMP DP  RH WIND       PRES   REMARKS
MILWAUKEE      SUNNY     60  42  51 SW15      29.97F
WAUKESHA       SUNNY     55  41  58 W10       29.98S
MILWAUKEE/TIMM SUNNY     57  39  51 W14       29.97F
RACINE         SUNNY     60  42  51 W12       29.99F
KENOSHA        SUNNY     60  44  55 W15       29.99S
FOND DU LAC    MOSUNNY   58  42  55 W10       29.93S
SHEBOYGAN      SUNNY     57  45  64 W14       29.92S
WEST BEND      SUNNY     55  43  62 W10       29.94F
JUNEAU         SUNNY     54  43  67 SW14      29.97R
$$

LSZ147-162-221600-
LAKE SUPERIOR

STATION/POSITION TIME  TEMP    WIND        PRES    WAVE
                       AIR SEA DIR/SP/G            HT/PER
                 (UTC) (F)     (DEG/KT/KT) (MB)    (FT/S)
W MID LAKE BUOY  1350   40 37  240/ 12/ 12 1007.3R   2/ 5
DEVILS ISLAND    1400   45     230/ 18/ 21 1007.5S
PORT WING        1230   47     220/  7/ 13 1008.1S
SAXON HARBOR     1440   50     210/  8/ 11 1007.8F
$$

LMZ867-665-643>646-221600-
LAKE MICHIGAN

STATION/POSITION TIME  TEMP    WIND        PRES    WAVE
                       AIR SEA DIR/SP/G            HT/PER
                 (UTC) (F)     (DEG/KT/KT) (MB)    (FT/S)
CHAMBERS ISLAND  1430   51     220/  7/ 12 1009.8S
N MID LAKE BUOY  1350   41 39  210/ 12/ 14 1010.7R   3/ 5
NORTHPORT PIER   1440   51     260/  4/ 15 1010.2R
KEWAUNEE LAKESHO 1430   52     270/ 13/ 21 1011.6R
SHEBOYGAN LAKESH 1400   53     260/ 14/ 16 1013.3R
PORT WASHINGTON  1430   58     260/  8/ 17 1014.9S
ATWATER BUOY     1309   52     240/ 12/ 16 1014.8
MILWAUKEE LAKESH 1430   55     270/ 11/ 14   N/A
S MID LAKE BUOY  1350   46 44  230/ 14/ 16 1016.6R   2/ 4
KENOSHA   LAKESH 1400   56     240/ 11/ 18 1015.6
$$

TC  - TEMPERATURE IN CELSIUS
VSB - VISIBILITY IN STATUTE MILES
WCI - WIND CHILL INDEX
HX  - HEAT INDEX





USA.gov is the U.S. government's official web portal to all federal, state and local government web resources and services.